This is the latest recevied weather packets stored in our database for station/object DH0DM-13. If no packets are shown the sender has not sent any weather packets the latest 10 day(s).
| Time | Temp. | Humidity | Pressure | Rain* | Wind** | Luminosity | Snow |
|---|---|---|---|---|---|---|---|
| 1787948113 | 21.11° C | 75% | 985.8 hPa | 4.57 mm | 0.89 m/s, 219° | - | - |
| 1787947512 | 21.11° C | 75% | 985.7 hPa | 4.57 mm | 0 m/s | - | - |
| 1787946910 | 21.11° C | 75% | 985 hPa | 4.57 mm | 3.58 m/s, 146° | - | - |
| 1787946309 | 21.67° C | 75% | 984.9 hPa | 4.57 mm | 0.45 m/s, 281° | - | - |
| 1787945708 | 21.67° C | 75% | 984.7 hPa | 4.57 mm | 1.34 m/s, 209° | - | - |
| 1787945107 | 21.67° C | 74% | 984.5 hPa | 4.57 mm | 2.68 m/s, 275° | - | - |
| 1787944506 | 21.67° C | 74% | 984.5 hPa | 4.57 mm | 1.79 m/s, 165° | - | - |
| 1787943906 | 21.67° C | 74% | 984.7 hPa | 4.57 mm | 3.58 m/s, 233° | - | - |
| 1787943305 | 21.67° C | 73% | 984.5 hPa | 4.57 mm | 3.58 m/s, 173° | - | - |
| 1787942704 | 21.67° C | 73% | 984.7 hPa | 4.57 mm | 2.68 m/s, 212° | - | - |
| 1787942103 | 22.22° C | 72% | 984.7 hPa | 4.57 mm | 2.68 m/s, 237° | - | - |
| 1787941502 | 22.22° C | 71% | 984.5 hPa | 4.57 mm | 0.89 m/s, 203° | - | - |
| 1787940901 | 22.22° C | 71% | 984.5 hPa | 4.57 mm | 2.24 m/s, 230° | - | - |
| 1787940300 | 21.67° C | 75% | 984.8 hPa | 4.57 mm | 2.68 m/s, 174° | - | - |
| 1787939699 | 21.67° C | 76% | 984.7 hPa | 4.57 mm | 4.47 m/s, 241° | - | - |
| 1787939098 | 21.67° C | 76% | 984.1 hPa | 4.57 mm | 6.71 m/s, 156° | - | - |
| 1787938497 | 22.22° C | 75% | 984.4 hPa | 4.57 mm | 1.79 m/s, 29° | - | - |
| 1787937896 | 22.22° C | 74% | 984.8 hPa | 4.57 mm | 3.13 m/s, 214° | - | - |
| 1787937296 | 22.22° C | 74% | 985.1 hPa | 4.57 mm | 4.02 m/s, 260° | - | - |
| 1787936695 | 22.22° C | 73% | 984.8 hPa | 4.57 mm | 2.68 m/s, 144° | - | - |
| 1787936094 | 22.22° C | 73% | 984.9 hPa | 4.57 mm | 1.34 m/s, 229° | - | - |
| 1787935493 | 22.22° C | 74% | 984.3 hPa | 4.57 mm | 1.34 m/s, 74° | - | - |
| 1787934892 | 22.22° C | 76% | 984.4 hPa | 4.57 mm | 1.34 m/s, 284° | - | - |
| 1787934291 | 22.22° C | 76% | 984.4 hPa | 4.57 mm | 2.24 m/s, 113° | - | - |
| 1787933690 | 21.67° C | 78% | 984.2 hPa | 4.57 mm | 0.45 m/s, 347° | - | - |
* Rain since midnight (hover to see other rain measurements)
** Current wind speed in m/s (hover to see current wind gust speed)